Preview of NWS' New Version of Forecast
This preview is not operational and should not be used for support decisions.

Regional Weather Roundup (RWR)

Issued by National Weather Service (NWS)

                            
000
ASUS45 KABQ 201610
RWRNM 
NEW MEXICO REGIONAL WEATHER ROUNDUP
NATIONAL WEATHER SERVICE ALBUQUERQUE NM
1000 AM MDT THU JUN 20 2019

NOTE: "FAIR" MEANS FEW OR NO CLOUDS BELOW 12,000 FEET AGL WITH NO
       SIGNIFICANT WEATHER OR OBSTRUCTIONS TO VISION.

      THIS PRODUCT IS RELEASED AS TWO VERSIONS.  ONE VERSION NEAR
      THE TOP OF THE HOUR CONTAINING PRELIMINARY DATA FROM ALBUQUERQUE
      AND OTHER STATIONS.  A FINAL VERSION WITH ADDITIONAL DATA IS 
      ISSUED ABOUT 10 MINUTES AFTER THE HOUR.
 
NMZ501-503-504-510>518-201700-
NORTHWEST PLATEAU/NORTHCENTRAL MOUNTAINS
  
CITY           SKY/WX    TMP DP  RH WIND       PRES   REMARKS
FARMINGTON     FAIR      76  34  21 N3        30.01F                  
LOS ALAMOS       N/A     72  32  22 SE6       30.16S                  
SANTA FE       FAIR      76  30  18 W7        30.10F                  
TAOS           FAIR      74  34  23 S10       30.15F                  
ANGEL FIRE       N/A     66  36  33 W10       30.22S                  

$$
NMZ402-403-502-505>509-201700-
WESTCENTRAL MOUNTAINS/SOUTHWEST MOUNTAINS
  
CITY           SKY/WX    TMP DP  RH WIND       PRES   REMARKS
GALLUP         FAIR      74  24  15 SW15G22   30.15S                  
GRANTS         FAIR      76  25  15 CALM      30.15F                  
SILVER CITY    FAIR      80  20  10 NW13G21   30.12S                  

$$
NMZ407-409-411-412-201700-
SOUTHERN DESERTS
  
CITY           SKY/WX    TMP DP  RH WIND       PRES   REMARKS
DEMING         FAIR      83  20   9 W13       30.05F                  
LAS CRUCES     FAIR      83  26  12 W13G20    30.05S                  
HOLLOMAN AFB   FAIR      84  29  14 CALM      30.01F                  
ALAMOGORDO     FAIR      82  28  14 S7        30.01F                  
T OR C         FAIR      85  21   9 E9        30.04S                  

$$
NMZ519>523-201700-
CENTRAL VALLEYS/CENTRAL HIGHLANDS
  
CITY           SKY/WX    TMP DP  RH WIND       PRES   REMARKS
ALBUQUERQUE    FAIR      77  29  17 S7        30.06S                  
DOUBLE EAGLE   SUNNY     75  30  19 VRB6      30.09S                  
MORIARTY ARPT  FAIR      83  31  15 NW10G17   30.10F                  
CLINES CORNERS FAIR      77  32  19 NW18      30.14F                  
BELEN          FAIR      80  23  12 CALM      30.05F                  
SOCORRO        FAIR      81  25  12 SE7       30.04S                  

$$
NMZ524>526-539-540-201700-
SOUTHCENTRAL MOUNTAINS
  
CITY           SKY/WX    TMP DP  RH WIND       PRES   REMARKS
RUIDOSO        FAIR      77  25  14 NW10G17   30.18F                  

$$
NMZ527>531-201700-
NORTHEAST HIGHLANDS/NORTHEAST PLAINS
  
CITY           SKY/WX    TMP DP  RH WIND       PRES   REMARKS
LAS VEGAS      FAIR      78  34  20 SW14G20   30.10F                  
RATON          FAIR      76  40  27 SW9       30.01F                  
CLAYTON        FAIR      88  38  17 W8        29.91S                  

$$
NMZ532>537-201700-
EASTCENTRAL PLAINS
  
CITY           SKY/WX    TMP DP  RH WIND       PRES   REMARKS
SANTA ROSA     FAIR      86  34  15 W14       29.95F                  
TUCUMCARI      FAIR      90  42  18 W7        29.86F                  
CANNON AFB     FAIR      90  43  19 W12       29.92F                  
CLOVIS AIRPORT FAIR      87  50  27 W6        29.91F                  

$$
NMZ028-029-538-201700-
SOUTHEAST PLAINS
  
CITY           SKY/WX    TMP DP  RH WIND       PRES   REMARKS
ROSWELL        FAIR      88  29  12 E6        29.90F                  
ARTESIA        FAIR      88  34  14 CALM      29.92F                  
CARLSBAD       FAIR      89  31  12 CALM      29.89S                  
HOBBS          SUNNY     91  28  10 W8        29.92S                  


$$